Location: Novo Ouro Preto
(19.8840°S, 43.9844°W)
Time: 23:32:27
(UTC+00:00)

Daily predictions for brighter satellites

Satellite Brightness Start Highest point End
(mag) Time Altitude Azimuth Time Altitude Azimuth Time Altitude Azimuth
Cosmos 1844 Rocket 2.8 21:02:03 10° S 21:07:34 56° ESE 21:13:00 10° NNE
Okean-O 4.2 21:07:35 10° ESE 21:10:07 15° E 21:12:39 10° NE
OAO 3 Rocket 3.2 21:05:42 10° WNW 21:10:22 81° SSW 21:15:04 10° ESE
BREEZE-M DEB (TANK) 2.0 21:09:18 10° NNW 21:11:29 48° NE 21:15:31 10° SE
COSMOS 2428 4.4 21:09:27 10° NW 21:14:43 38° WSW 21:20:02 10° S
FALCON 9 DEB 3.5 21:15:15 10° NNW 21:18:17 39° NE 21:21:22 10° SE
Cosmos 2219 Rocket 4.4 21:14:29 10° NW 21:19:16 29° WSW 21:24:04 10° S
Orbus 7S 2.8 21:21:46 10° WSW 21:24:23 52° SSE 21:26:50 13° E
YAOGAN 1 4.1 21:22:19 10° ESE 21:24:57 16° E 21:27:33 10° NE
Cosmos 2298 Rocket 4.0 21:20:01 10° SSW 21:25:23 84° ESE 21:30:42 10° NNE
CZ-2C R/B 3.5 21:21:01 10° NE 21:25:54 32° ESE 21:30:47 10° SSE
SL-16 R/B 3.3 21:22:05 10° NNE 21:26:18 22° ENE 21:30:32 10° SE
FengYun 1-2 T 4.2 21:22:27 10° SSE 21:27:59 75° ENE 21:33:29 10° N
Cosmos 2237 Rocket 2.2 21:23:19 10° NNW 21:28:57 88° ENE 21:34:40 10° SSE
Atlas Centaur 2 3.9 21:25:46 10° N 21:28:59 14° NNE 21:31:53 10° ENE
Cosmos 1980 3.8 21:24:21 10° NNW 21:30:00 83° WSW 21:35:42 10° SSE
FALCON 9 DEB 3.0 21:27:15 10° NNW 21:30:27 61° NE 21:33:41 10° SE
USA 215 3.3 21:26:22 10° SE 21:32:56 72° NE 21:39:28 10° NNW
CZ-3B R/B 2.1 21:31:54 10° WSW 21:32:57 20° S 21:33:18 18° SSE
Cosmos 2346 Rocket 4.5 21:26:50 10° N 21:33:02 70° E 21:39:19 10° S
Cosmos 1378 Rocket 3.9 21:31:44 10° NNE 21:35:48 42° E 21:39:57 10° SSE
Cosmos 1891 Rocket 4.5 21:36:45 10° S 21:43:11 69° E 21:49:24 10° NNE
Cosmos 1816 Rocket 4.4 21:38:33 10° N 21:44:42 68° E 21:51:00 10° S
CZ-4 R/B 2.0 21:41:08 10° SSE 21:44:58 36° E 21:48:49 10° NNE
Cosmos 1607 4.0 21:39:08 10° NNW 21:45:31 87° WSW 21:51:49 10° SSE
Cosmos 773 Rocket 4.2 21:40:52 10° NNW 21:46:07 76° WSW 21:51:27 10° S
Cosmos 2151 Rocket 3.9 21:42:47 10° SSE 21:46:59 42° E 21:51:10 10° NNE
Okean O Rocket 4.3 21:44:27 10° SSW 21:47:55 22° WSW 21:51:22 10° NW
Feng Yun 1-1 Rocket 4.3 21:44:34 10° S 21:50:00 81° WSW 21:55:23 10° NNW
H-2A ROCKET BODY 3.4 21:47:06 10° W 21:51:42 66° S 22:09:51 14° ESE
Tsikada Rocket 3.9 21:45:45 10° N 21:51:53 68° E 21:58:11 10° S
deb Centaur AC-2 4.3 21:47:01 10° NW 21:52:22 64° NNE 21:54:54 26° E
Cosmos 1378 3.2 21:49:26 10° N 21:53:08 79° W 21:56:55 10° S
GPS 2-15 Rocket1 3.6 21:51:37 10° W 21:56:29 55° NNW 21:59:10 25° NE
Cosmos 1271 Rocket 3.8 21:56:14 10° NNW 22:00:01 47° W 22:03:48 10° S
BREEZE-M DEB (TANK) 2.2 22:01:01 10° NW 22:03:45 79° SW 22:10:14 10° SE
Okean 2 3.7 22:00:42 10° NNE 22:05:47 32° SE 22:08:28 10° SSE
FALCON 9 DEB 4.4 22:02:55 10° WNW 22:05:57 37° SW 22:08:17 15° SSE
Cosmos 1125 Rocket 3.9 22:00:48 10° SSW 22:06:01 64° WNW 22:11:13 10° N
COSMOS 2455 4.1 22:03:24 10° SSE 22:07:11 21° SE 22:07:11 21° SE
Cosmos 2034 Rocket 3.9 22:05:57 10° S 22:12:19 79° E 22:18:41 10° N
Cosmos 1538 Rocket 4.4 22:09:56 10° NNW 22:15:14 67° WSW 22:20:38 10° S
Orbus 7S 3.7 22:15:20 10° WSW 22:19:28 41° NNW 22:19:40 40° NNW
Intelsat 5-2 Rocket 3.3 22:19:46 10° W 22:26:30 52° NNW 22:26:52 49° N
DMSP B5D2-2 4.4 22:21:49 10° N 22:27:01 66° WNW 22:32:17 10° SSW
Gbstr 26 Del rocket 4.3 22:25:40 10° SW 22:30:32 50° NW 22:33:53 24° NNE
CZ-4C R/B 2.8 22:30:43 10° SSW 22:33:44 32° SSE 22:33:44 32° SSE
GPS 2-18 Rocket1 4.4 22:32:36 10° W 22:35:08 35° WNW 22:35:08 35° WNW
ATLAS 2AS CENTAUR R/B 4.2 22:30:49 10° SW 22:37:15 36° WNW 22:44:05 10° N
Cosmos 2278 Rocket 2.2 22:33:58 10° S 22:39:05 61° SE 22:39:05 61° SE
Hubble Space Telescope 1.8 22:39:20 10° W 22:42:36 43° SW 22:42:36 43° SW
Milstar 3 3.5 22:38:20 10° WSW 22:45:00 56° NNW 22:48:13 38° NNE
Cosmos 1634 Rocket 4.4 22:39:48 10° S 22:44:25 47° SSE 22:44:25 47° SSE
Okean 1 Rocket 4.4 22:43:13 10° S 22:45:36 31° SSW 22:45:36 31° SSW
CZ-2C R/B 3.1 22:43:08 10° S 22:47:54 66° WSW 22:52:45 10° NNW
Skynet4D Del rocket 4.1 22:55:38 10° WSW 23:02:21 65° NW 23:02:21 65° NW
Aurora 2 Rocket 4.2 23:02:41 10° WNW 23:07:21 40° NW 23:07:21 40° NW
SL-16 R/B 3.9 23:05:12 10° NW 23:10:05 30° WSW 23:15:03 10° S
Atlas Centaur 2 4.0 23:12:41 10° NW 23:14:37 20° NW 23:14:37 20° NW
CZ-3A R/B 4.2 22:41:14 10° WNW 23:24:22 83° NNE 23:27:13 66° E
